This is the latest recevied weather packets stored in our database for station/object EA1FBN. If no packets are shown the sender has not sent any weather packets the latest 10 day(s).
| Time | Temp. | Humidity | Pressure | Rain* | Wind** | Luminosity | Snow |
|---|---|---|---|---|---|---|---|
| 1777740623 | 13.89° C | 71% | 1014.1 hPa | 0 mm | - | - | - |
| 1777739723 | 13.33° C | 73% | 1014.1 hPa | 0 mm | - | - | - |
| 1777739123 | 13.33° C | 74% | 1014 hPa | 0.25 mm | - | - | - |
| 1777738523 | 13.33° C | 73% | 1014.1 hPa | 0.51 mm | - | - | - |
| 1777738223 | 13.33° C | 73% | 1014 hPa | 0.51 mm | - | - | - |
| 1777737923 | 12.78° C | 74% | 1014.2 hPa | 0.51 mm | - | - | - |
| 1777737623 | 12.78° C | 74% | 1014.2 hPa | 0.51 mm | - | - | - |
| 1777737323 | 12.78° C | 75% | 1014.3 hPa | 0.51 mm | - | - | - |
| 1777736723 | 12.78° C | 74% | 1014.5 hPa | 0.51 mm | - | - | - |
| 1777736423 | 13.33° C | 73% | 1014.5 hPa | 0.51 mm | - | - | - |
| 1777736123 | 14.44° C | 70% | 1014.6 hPa | 0.51 mm | - | - | - |
| 1777735823 | 16.11° C | 70% | 1014.6 hPa | 0.25 mm | - | - | - |
| 1777735523 | 16.11° C | 69% | 1014.3 hPa | 0.25 mm | - | - | - |
| 1777735223 | 16.11° C | 68% | 1014.2 hPa | 0.25 mm | - | - | - |
| 1777734923 | 16.11° C | 69% | 1014.1 hPa | 0 mm | - | - | - |
| 1777734623 | 16.11° C | 68% | 1014.1 hPa | 0 mm | - | - | - |
| 1777734323 | 16.11° C | 69% | 1014.2 hPa | 0 mm | - | - | - |
| 1777734023 | 15.56° C | 71% | 1014.3 hPa | 0 mm | - | - | - |
| 1777733723 | 15° C | 72% | 1014.3 hPa | 0 mm | - | - | - |
| 1777733423 | 14.44° C | 71% | 1014.4 hPa | 0 mm | - | - | - |
| 1777733123 | 14.44° C | 73% | 1014.5 hPa | 0 mm | - | - | - |
| 1777732823 | 14.44° C | 73% | 1014.6 hPa | 0 mm | - | - | - |
| 1777732523 | 13.89° C | 73% | 1014.6 hPa | 0 mm | - | - | - |
| 1777732223 | 13.89° C | 72% | 1014.6 hPa | 0 mm | - | - | - |
| 1777731923 | 13.89° C | 73% | 1014.8 hPa | 0 mm | - | - | - |
* Rain latest hour (hover to see other rain measurements)
** Current wind speed in m/s (hover to see current wind gust speed)